Time,TemperatureF,DewpointF,PressureIn,WindDirection,WindDirectionDegrees,WindSpeedMPH,WindSpeedGustMPH,Humidity,HourlyPrecipIn,Conditions,Clouds,dailyrainin,SoftwareType,DateUTC
2013-09-03 00:00:00,66.6,61.6,29.88,West,277,0.0,1.0,84,0.00,CLR,CLR,0.00,WeatherDisplay:10.37,2013-09-03 04:00:00,
2013-09-03 00:01:00,66.5,61.5,29.88,West,277,1.2,0.0,84,0.00,CLR,,0.00,WeatherDisplay:10.37,2013-09-03 04:01:00,
2013-09-03 00:02:00,66.5,61.5,29.88,West,277,1.2,1.2,84,0.00,CLR,,0.00,WeatherDisplay:10.37,2013-09-03 04:02:00,
2013-09-03 00:03:00,66.5,61.5,29.88,West,277,1.2,1.2,84,0.00,CLR,,0.00,WeatherDisplay:10.37,2013-09-03 04:03:00,
2013-09-03 00:04:00,66.5,61.5,29.88,West,277,1.2,1.2,84,0.00,CLR,,0.00,WeatherDisplay:10.37,2013-09-03 04:04:00,
2013-09-03 00:09:00,66.3,61.7,29.88,West,277,2.3,2.3,85,0.00,CLR,,0.00,WeatherDisplay:10.37,2013-09-03 04:09:00,
2013-09-03 00:14:00,66.2,61.6,29.88,West,277,0.0,0.0,85,0.00,CLR,,0.00,WeatherDisplay:10.37,2013-09-03 04:14:00,
2013-09-03 00:19:00,66.0,61.0,29.88,West,277,1.2,0.0,84,0.00,CLR,,0.00,WeatherDisplay:10.37,2013-09-03 04:19:00,
2013-09-03 00:24:00,65.9,61.3,29.88,West,277,1.2,1.2,85,0.00,CLR,,0.00,WeatherDisplay:10.37,2013-09-03 04:24:00,
2013-09-03 00:29:00,65.8,61.2,29.88,West,277,0.0,0.0,85,0.00,CLR,,0.00,WeatherDisplay:10.37,2013-09-03 04:29:00,
2013-09-03 00:34:00,65.6,61.0,29.88,West,277,0.0,0.0,85,0.00,CLR,,0.00,WeatherDisplay:10.37,2013-09-03 04:34:00,
2013-09-03 00:39:00,65.6,61.0,29.88,West,277,1.2,0.0,85,0.00,CLR,,0.00,WeatherDisplay:10.37,2013-09-03 04:39:00,
2013-09-03 00:44:00,65.5,60.9,29.88,West,277,1.2,1.2,85,0.00,CLR,,0.00,WeatherDisplay:10.37,2013-09-03 04:44:00,
2013-09-03 00:49:00,65.4,60.8,29.87,West,277,0.0,0.0,85,0.00,CLR,,0.00,WeatherDisplay:10.37,2013-09-03 04:49:00,
2013-09-03 00:54:00,65.3,60.7,29.87,West,277,0.0,0.0,85,0.00,CLR,,0.00,WeatherDisplay:10.37,2013-09-03 04:54:00,
2013-09-03 00:59:00,65.3,60.7,29.87,West,277,0.0,0.0,85,0.00,CLR,,0.00,WeatherDisplay:10.37,2013-09-03 04:59:00,
2013-09-03 01:04:00,65.2,60.6,29.87,West,277,0.0,0.0,85,0.00,CLR,,0.00,WeatherDisplay:10.37,2013-09-03 05:04:00,
2013-09-03 01:09:00,65.1,60.5,29.87,West,277,0.0,0.0,85,0.00,CLR,,0.00,WeatherDisplay:10.37,2013-09-03 05:09:00,
2013-09-03 01:14:00,65.1,60.5,29.87,West,277,0.0,0.0,85,0.00,CLR,,0.00,WeatherDisplay:10.37,2013-09-03 05:14:00,
2013-09-03 01:19:00,65.0,60.4,29.87,West,277,0.0,0.0,85,0.00,CLR,,0.00,WeatherDisplay:10.37,2013-09-03 05:19:00,
2013-09-03 01:24:00,64.9,60.3,29.87,West,277,0.0,0.0,85,0.00,CLR,,0.00,WeatherDisplay:10.37,2013-09-03 05:24:00,
2013-09-03 01:29:00,64.8,60.2,29.87,West,277,1.2,1.2,85,0.00,CLR,,0.00,WeatherDisplay:10.37,2013-09-03 05:29:00,
2013-09-03 01:34:00,64.7,60.1,29.87,West,278,0.0,0.0,85,0.00,CLR,,0.00,WeatherDisplay:10.37,2013-09-03 05:34:00,
2013-09-03 01:39:00,64.7,60.1,29.87,West,277,0.0,0.0,85,0.00,CLR,,0.00,WeatherDisplay:10.37,2013-09-03 05:39:00,
2013-09-03 01:44:00,64.6,60.0,29.87,West,278,0.0,0.0,85,0.00,CLR,,0.00,WeatherDisplay:10.37,2013-09-03 05:44:00,
2013-09-03 01:49:00,64.5,59.9,29.87,West,278,0.0,0.0,85,0.00,CLR,,0.00,WeatherDisplay:10.37,2013-09-03 05:49:00,
2013-09-03 01:54:00,64.5,59.9,29.86,West,278,0.0,0.0,85,0.00,CLR,,0.00,WeatherDisplay:10.37,2013-09-03 05:54:00,
2013-09-03 01:59:00,64.4,59.8,29.87,West,278,0.0,0.0,85,0.00,CLR,,0.00,WeatherDisplay:10.37,2013-09-03 05:59:00,
2013-09-03 02:04:00,64.3,59.7,29.87,West,278,2.0,2.0,85,0.00,CLR,,0.00,WeatherDisplay:10.37,2013-09-03 06:04:00,
2013-09-03 02:09:00,64.2,59.6,29.87,West,278,0.0,0.0,85,0.00,CLR,,0.00,WeatherDisplay:10.37,2013-09-03 06:09:00,
2013-09-03 02:14:00,64.1,59.5,29.87,West,278,3.0,3.0,85,0.00,CLR,,0.00,WeatherDisplay:10.37,2013-09-03 06:14:00,
2013-09-03 02:19:00,63.9,59.3,29.87,West,267,3.5,3.5,85,0.00,CLR,,0.00,WeatherDisplay:10.37,2013-09-03 06:19:00,
2013-09-03 02:24:00,63.9,59.3,29.87,West,267,4.0,4.0,85,0.00,CLR,,0.00,WeatherDisplay:10.37,2013-09-03 06:24:00,
2013-09-03 02:29:00,63.8,59.2,29.87,WSW,244,4.0,4.0,85,0.00,CLR,,0.00,WeatherDisplay:10.37,2013-09-03 06:29:00,
2013-09-03 02:34:00,63.6,59.0,29.87,WSW,242,3.5,3.5,85,0.00,CLR,,0.00,WeatherDisplay:10.37,2013-09-03 06:34:00,
2013-09-03 02:39:00,63.5,58.9,29.87,West,267,4.0,4.0,85,0.00,CLR,,0.00,WeatherDisplay:10.37,2013-09-03 06:39:00,
2013-09-03 02:44:00,63.5,58.9,29.87,West,267,2.3,2.3,85,0.00,CLR,,0.00,WeatherDisplay:10.37,2013-09-03 06:44:00,
2013-09-03 02:49:00,63.4,58.8,29.86,West,267,0.0,0.0,85,0.00,CLR,,0.00,WeatherDisplay:10.37,2013-09-03 06:49:00,
2013-09-03 02:54:00,63.3,59.0,29.86,WNW,286,0.0,0.0,86,0.00,CLR,,0.00,WeatherDisplay:10.37,2013-09-03 06:54:00,
2013-09-03 02:59:00,63.3,59.0,29.86,WNW,284,0.0,0.0,86,0.00,CLR,,0.00,WeatherDisplay:10.37,2013-09-03 06:59:00,
2013-09-03 03:04:00,63.2,58.9,29.86,WNW,284,0.0,0.0,86,0.00,CLR,,0.00,WeatherDisplay:10.37,2013-09-03 07:04:00,
2013-09-03 03:09:00,63.2,58.9,29.86,WNW,284,0.0,0.0,86,0.00,CLR,,0.00,WeatherDisplay:10.37,2013-09-03 07:09:00,
2013-09-03 03:14:00,63.1,58.8,29.87,WNW,284,0.0,0.0,86,0.00,CLR,,0.00,WeatherDisplay:10.37,2013-09-03 07:14:00,
2013-09-03 03:19:00,63.1,58.8,29.86,WNW,284,0.0,0.0,86,0.00,CLR,,0.00,WeatherDisplay:10.37,2013-09-03 07:19:00,
2013-09-03 03:24:00,62.9,58.6,29.87,WNW,284,3.5,3.5,86,0.00,CLR,,0.00,WeatherDisplay:10.37,2013-09-03 07:24:00,
2013-09-03 03:29:00,62.7,58.1,29.87,WSW,255,4.0,4.0,85,0.00,CLR,,0.00,WeatherDisplay:10.37,2013-09-03 07:29:00,
2013-09-03 03:34:00,62.4,58.2,29.86,SW,217,4.0,4.0,86,0.00,CLR,,0.00,WeatherDisplay:10.37,2013-09-03 07:34:00,
2013-09-03 03:39:00,62.2,57.6,29.86,SW,220,4.0,4.0,85,0.00,CLR,,0.00,WeatherDisplay:10.37,2013-09-03 07:39:00,
2013-09-03 03:44:00,62.2,58.0,29.87,SW,222,4.0,4.0,86,0.00,CLR,,0.00,WeatherDisplay:10.37,2013-09-03 07:44:00,
2013-09-03 03:49:00,62.0,57.8,29.87,SW,226,3.5,3.5,86,0.00,CLR,,0.00,WeatherDisplay:10.37,2013-09-03 07:49:00,
2013-09-03 03:54:00,61.9,57.7,29.86,SW,227,3.5,3.5,86,0.00,CLR,,0.00,WeatherDisplay:10.37,2013-09-03 07:54:00,
2013-09-03 03:59:00,61.8,57.6,29.86,SW,227,3.5,3.5,86,0.00,CLR,,0.00,WeatherDisplay:10.37,2013-09-03 07:59:00,
2013-09-03 04:04:00,61.7,57.5,29.86,SW,226,3.5,3.5,86,0.00,CLR,,0.00,WeatherDisplay:10.37,2013-09-03 08:04:00,
2013-09-03 04:09:00,61.6,57.4,29.87,SW,226,2.3,2.3,86,0.00,CLR,,0.00,WeatherDisplay:10.37,2013-09-03 08:09:00,
2013-09-03 04:14:00,61.6,57.4,29.87,SW,226,0.0,0.0,86,0.00,CLR,,0.00,WeatherDisplay:10.37,2013-09-03 08:14:00,
2013-09-03 04:19:00,61.5,57.3,29.87,SW,227,3.5,3.5,86,0.01,RA,,0.01,WeatherDisplay:10.37,2013-09-03 08:19:00,
2013-09-03 04:24:00,61.4,57.2,29.87,SW,227,3.5,3.5,86,0.01,RA,,0.01,WeatherDisplay:10.37,2013-09-03 08:24:00,
2013-09-03 04:29:00,61.4,57.2,29.87,SW,227,1.2,1.2,86,0.01,,,0.01,WeatherDisplay:10.37,2013-09-03 08:29:00,
2013-09-03 04:34:00,61.4,57.2,29.88,SW,227,1.2,0.0,86,0.01,CLR,,0.01,WeatherDisplay:10.37,2013-09-03 08:34:00,
2013-09-03 04:39:00,61.5,57.3,29.88,SW,226,3.5,3.5,86,0.01,CLR,,0.01,WeatherDisplay:10.37,2013-09-03 08:39:00,
2013-09-03 04:44:00,61.6,57.4,29.88,SW,227,2.0,2.0,86,0.01,CLR,,0.01,WeatherDisplay:10.37,2013-09-03 08:44:00,
2013-09-03 04:49:00,61.7,57.8,29.88,SW,227,1.2,0.0,87,0.01,CLR,,0.01,WeatherDisplay:10.37,2013-09-03 08:49:00,
2013-09-03 04:54:00,61.7,57.8,29.88,SW,227,3.5,3.5,87,0.01,CLR,,0.01,WeatherDisplay:10.37,2013-09-03 08:54:00,
2013-09-03 04:59:00,61.8,57.9,29.88,West,264,3.5,3.5,87,0.01,CLR,,0.01,WeatherDisplay:10.37,2013-09-03 08:59:00,
2013-09-03 05:04:00,61.9,58.0,29.89,West,263,4.0,4.0,87,0.01,CLR,,0.01,WeatherDisplay:10.37,2013-09-03 09:04:00,
2013-09-03 05:09:00,61.9,58.0,29.89,West,259,4.0,4.0,87,0.01,CLR,,0.01,WeatherDisplay:10.37,2013-09-03 09:09:00,
2013-09-03 05:14:00,61.9,58.0,29.89,West,259,4.0,4.0,87,0.01,CLR,,0.01,WeatherDisplay:10.37,2013-09-03 09:14:00,
2013-09-03 05:19:00,61.9,58.0,29.89,WSW,257,1.2,0.0,87,0.00,CLR,,0.01,WeatherDisplay:10.37,2013-09-03 09:19:00,
2013-09-03 05:24:00,61.9,58.0,29.89,WSW,256,5.0,5.0,87,0.00,CLR,,0.01,WeatherDisplay:10.37,2013-09-03 09:24:00,
2013-09-03 05:29:00,61.8,57.9,29.89,WSW,256,3.5,3.5,87,0.00,CLR,,0.01,WeatherDisplay:10.37,2013-09-03 09:29:00,
2013-09-03 05:34:00,61.8,57.9,29.89,WSW,257,0.0,0.0,87,0.00,CLR,,0.01,WeatherDisplay:10.37,2013-09-03 09:34:00,
2013-09-03 05:39:00,61.7,57.8,29.90,WSW,257,0.0,0.0,87,0.00,CLR,,0.01,WeatherDisplay:10.37,2013-09-03 09:39:00,
2013-09-03 05:44:00,61.7,57.8,29.90,West,265,1.2,0.0,87,0.00,CLR,,0.01,WeatherDisplay:10.37,2013-09-03 09:44:00,
2013-09-03 05:49:00,61.7,57.8,29.90,West,265,1.2,0.0,87,0.00,CLR,,0.01,WeatherDisplay:10.37,2013-09-03 09:49:00,
2013-09-03 05:54:00,61.6,57.7,29.90,West,265,3.0,3.0,87,0.00,CLR,,0.01,WeatherDisplay:10.37,2013-09-03 09:54:00,
2013-09-03 05:59:00,61.6,57.7,29.90,WSW,238,4.6,4.6,87,0.00,CLR,,0.01,WeatherDisplay:10.37,2013-09-03 09:59:00,
2013-09-03 06:04:00,61.6,57.7,29.90,WSW,238,1.2,0.0,87,0.00,CLR,,0.01,WeatherDisplay:10.37,2013-09-03 10:04:00,
2013-09-03 06:09:00,61.6,57.7,29.90,WSW,238,1.2,1.2,87,0.00,CLR,,0.01,WeatherDisplay:10.37,2013-09-03 10:09:00,
2013-09-03 06:14:00,61.5,57.6,29.90,WNW,288,3.5,3.5,87,0.00,CLR,,0.01,WeatherDisplay:10.37,2013-09-03 10:14:00,
2013-09-03 06:19:00,61.5,57.6,29.90,WNW,298,2.3,2.3,87,0.00,CLR,,0.01,WeatherDisplay:10.37,2013-09-03 10:19:00,
2013-09-03 06:24:00,61.5,57.6,29.91,SW,232,1.2,1.2,87,0.00,CLR,,0.01,WeatherDisplay:10.37,2013-09-03 10:24:00,
2013-09-03 06:29:00,61.5,57.6,29.91,WSW,258,0.0,0.0,87,0.00,CLR,,0.01,WeatherDisplay:10.37,2013-09-03 10:29:00,
2013-09-03 06:34:00,61.5,57.6,29.91,WSW,257,2.3,0.0,87,0.00,CLR,,0.01,WeatherDisplay:10.37,2013-09-03 10:34:00,
2013-09-03 06:39:00,61.6,57.7,29.91,WSW,258,0.0,0.0,87,0.00,CLR,,0.01,WeatherDisplay:10.37,2013-09-03 10:39:00,
2013-09-03 06:44:00,61.6,57.7,29.91,NW,310,2.3,0.0,87,0.00,CLR,,0.01,WeatherDisplay:10.37,2013-09-03 10:44:00,
2013-09-03 06:49:00,61.6,57.7,29.91,NW,325,0.0,0.0,87,0.00,CLR,,0.01,WeatherDisplay:10.37,2013-09-03 10:49:00,
2013-09-03 06:54:00,61.6,57.7,29.91,NW,325,1.0,1.0,87,0.00,CLR,,0.01,WeatherDisplay:10.37,2013-09-03 10:54:00,
2013-09-03 06:59:00,61.6,57.7,29.91,NW,325,0.0,0.0,87,0.00,CLR,,0.01,WeatherDisplay:10.37,2013-09-03 10:59:00,
2013-09-03 07:04:00,61.7,57.8,29.91,NNE,19,0.0,0.0,87,0.00,CLR,,0.01,WeatherDisplay:10.37,2013-09-03 11:04:00,
2013-09-03 07:09:00,61.6,57.7,29.92,NNE,19,1.2,0.0,87,0.00,CLR,,0.01,WeatherDisplay:10.37,2013-09-03 11:09:00,
2013-09-03 07:14:00,61.6,57.7,29.92,North,5,1.2,0.0,87,0.00,CLR,,0.01,WeatherDisplay:10.37,2013-09-03 11:14:00,
2013-09-03 07:19:00,61.6,57.7,29.92,North,5,1.2,0.0,87,0.00,CLR,,0.01,WeatherDisplay:10.37,2013-09-03 11:19:00,
2013-09-03 07:24:00,61.6,57.7,29.93,North,360,1.0,0.0,87,0.00,CLR,,0.01,WeatherDisplay:10.37,2013-09-03 11:24:00,
2013-09-03 07:29:00,61.6,57.7,29.93,North,360,2.3,2.3,87,0.00,CLR,,0.01,WeatherDisplay:10.37,2013-09-03 11:29:00,
2013-09-03 07:34:00,61.5,57.6,29.93,NNE,13,2.0,2.0,87,0.00,CLR,,0.01,WeatherDisplay:10.37,2013-09-03 11:34:00,
2013-09-03 07:39:00,61.4,57.5,29.93,NNE,13,3.0,3.0,87,0.00,CLR,,0.01,WeatherDisplay:10.37,2013-09-03 11:39:00,
2013-09-03 07:44:00,61.4,57.5,29.93,NNE,13,1.2,0.0,87,0.00,CLR,,0.01,WeatherDisplay:10.37,2013-09-03 11:44:00,
2013-09-03 07:49:00,61.4,57.5,29.93,NNE,13,0.0,0.0,87,0.00,CLR,,0.01,WeatherDisplay:10.37,2013-09-03 11:49:00,
2013-09-03 07:54:00,61.4,57.5,29.94,NNE,13,0.0,0.0,87,0.00,CLR,,0.01,WeatherDisplay:10.37,2013-09-03 11:54:00,
2013-09-03 07:59:00,61.4,57.5,29.94,NNE,13,2.3,2.3,87,0.00,CLR,,0.01,WeatherDisplay:10.37,2013-09-03 11:59:00,
2013-09-03 08:04:00,61.5,57.6,29.94,NNE,26,0.0,0.0,87,0.00,CLR,,0.01,WeatherDisplay:10.37,2013-09-03 12:04:00,
2013-09-03 08:09:00,61.6,58.0,29.95,NNE,25,0.0,0.0,88,0.00,CLR,,0.01,WeatherDisplay:10.37,2013-09-03 12:09:00,
2013-09-03 08:14:00,61.6,58.0,29.95,North,360,7.0,7.0,88,0.00,CLR,,0.01,WeatherDisplay:10.37,2013-09-03 12:14:00,
2013-09-03 08:19:00,61.6,58.0,29.95,North,360,2.3,0.0,88,0.00,CLR,,0.01,WeatherDisplay:10.37,2013-09-03 12:19:00,
2013-09-03 08:24:00,61.7,58.1,29.95,North,360,2.3,2.3,88,0.00,CLR,,0.01,WeatherDisplay:10.37,2013-09-03 12:24:00,
2013-09-03 08:29:00,61.7,57.8,29.96,North,360,0.0,0.0,87,0.00,CLR,,0.01,WeatherDisplay:10.37,2013-09-03 12:29:00,
2013-09-03 08:34:00,61.8,57.9,29.95,North,360,0.0,0.0,87,0.00,CLR,,0.01,WeatherDisplay:10.37,2013-09-03 12:34:00,
2013-09-03 08:39:00,61.9,58.0,29.96,North,360,0.0,0.0,87,0.00,CLR,,0.01,WeatherDisplay:10.37,2013-09-03 12:39:00,
2013-09-03 08:44:00,62.0,58.1,29.96,North,360,0.0,0.0,87,0.00,CLR,,0.01,WeatherDisplay:10.37,2013-09-03 12:44:00,
2013-09-03 08:49:00,62.0,58.1,29.96,North,360,0.0,0.0,87,0.00,CLR,,0.01,WeatherDisplay:10.37,2013-09-03 12:49:00,
2013-09-03 08:54:00,62.0,58.1,29.96,North,360,0.0,0.0,87,0.00,CLR,,0.01,WeatherDisplay:10.37,2013-09-03 12:54:00,
2013-09-03 08:59:00,61.9,58.0,29.96,North,360,0.0,0.0,87,0.00,CLR,,0.01,WeatherDisplay:10.37,2013-09-03 12:59:00,
2013-09-03 09:04:00,62.0,58.1,29.96,North,360,2.3,0.0,87,0.00,CLR,,0.01,WeatherDisplay:10.37,2013-09-03 13:04:00,
2013-09-03 09:09:00,62.0,58.1,29.96,North,360,1.2,0.0,87,0.00,CLR,,0.01,WeatherDisplay:10.37,2013-09-03 13:09:00,
2013-09-03 09:14:00,61.9,58.0,29.96,North,360,2.3,2.3,87,0.00,CLR,,0.01,WeatherDisplay:10.37,2013-09-03 13:14:00,
2013-09-03 09:19:00,61.8,57.9,29.97,North,360,3.5,3.5,87,0.00,CLR,,0.01,WeatherDisplay:10.37,2013-09-03 13:19:00,
2013-09-03 09:24:00,61.8,57.9,29.97,North,360,2.3,0.0,87,0.00,CLR,,0.01,WeatherDisplay:10.37,2013-09-03 13:24:00,
2013-09-03 09:29:00,61.9,58.0,29.97,North,360,0.0,0.0,87,0.00,CLR,,0.01,WeatherDisplay:10.37,2013-09-03 13:29:00,
2013-09-03 09:34:00,62.0,58.1,29.97,North,360,2.0,2.0,87,0.00,CLR,,0.01,WeatherDisplay:10.37,2013-09-03 13:34:00,
2013-09-03 09:39:00,62.0,58.1,29.97,North,5,5.0,5.0,87,0.00,CLR,,0.01,WeatherDisplay:10.37,2013-09-03 13:39:00,
2013-09-03 09:44:00,61.9,58.0,29.97,North,5,1.2,0.0,87,0.00,CLR,,0.01,WeatherDisplay:10.37,2013-09-03 13:44:00,
2013-09-03 09:49:00,61.9,58.0,29.97,North,5,5.0,5.0,87,0.00,CLR,,0.01,WeatherDisplay:10.37,2013-09-03 13:49:00,
2013-09-03 09:54:00,62.5,58.6,29.97,North,5,0.0,0.0,87,0.00,CLR,,0.01,WeatherDisplay:10.37,2013-09-03 13:54:00,
2013-09-03 09:59:00,63.3,59.4,29.97,North,5,3.5,3.5,87,0.00,CLR,,0.01,WeatherDisplay:10.37,2013-09-03 13:59:00,
2013-09-03 10:04:00,64.1,59.2,29.97,North,5,7.0,7.0,84,0.00,CLR,,0.01,WeatherDisplay:10.37,2013-09-03 14:04:00,
2013-09-03 10:09:00,64.0,58.1,29.98,NNE,25,3.5,0.0,81,0.00,CLR,,0.01,WeatherDisplay:10.37,2013-09-03 14:09:00,
2013-09-03 10:14:00,64.3,58.0,29.98,NNE,22,6.0,6.0,80,0.00,CLR,,0.01,WeatherDisplay:10.37,2013-09-03 14:14:00,
2013-09-03 10:19:00,64.2,57.2,29.98,NNE,13,1.0,0.0,78,0.00,CLR,,0.01,WeatherDisplay:10.37,2013-09-03 14:19:00,
2013-09-03 10:24:00,64.8,57.8,29.98,West,262,0.0,0.0,78,0.00,CLR,,0.01,WeatherDisplay:10.37,2013-09-03 14:24:00,
2013-09-03 10:29:00,64.9,57.2,29.98,North,355,3.5,3.5,76,0.00,CLR,,0.01,WeatherDisplay:10.37,2013-09-03 14:29:00,
2013-09-03 10:34:00,65.4,58.0,29.98,NNE,15,3.5,0.0,77,0.00,CLR,,0.01,WeatherDisplay:10.37,2013-09-03 14:34:00,
2013-09-03 10:39:00,65.3,57.2,29.98,NNE,13,5.0,5.0,75,0.00,CLR,,0.01,WeatherDisplay:10.37,2013-09-03 14:39:00,
2013-09-03 10:44:00,65.0,56.5,29.98,NNE,30,6.0,6.0,74,0.00,CLR,,0.01,WeatherDisplay:10.37,2013-09-03 14:44:00,
2013-09-03 10:49:00,65.2,56.7,29.98,NNE,19,4.6,4.6,74,0.00,CLR,,0.01,WeatherDisplay:10.37,2013-09-03 14:49:00,
2013-09-03 10:54:00,65.3,56.8,29.98,NNE,22,5.0,5.0,74,0.00,CLR,,0.01,WeatherDisplay:10.37,2013-09-03 14:54:00,
2013-09-03 10:59:00,65.4,56.9,29.98,NNE,22,2.3,0.0,74,0.00,CLR,,0.01,WeatherDisplay:10.37,2013-09-03 14:59:00,
2013-09-03 11:04:00,65.7,56.4,29.98,North,355,2.3,2.3,72,0.00,CLR,,0.01,WeatherDisplay:10.37,2013-09-03 15:04:00,
2013-09-03 11:09:00,65.6,56.3,29.98,NNW,335,1.0,1.0,72,0.00,CLR,,0.01,WeatherDisplay:10.37,2013-09-03 15:09:00,
2013-09-03 11:14:00,65.5,55.1,29.99,NNW,329,2.3,2.3,69,0.00,CLR,,0.01,WeatherDisplay:10.37,2013-09-03 15:14:00,
2013-09-03 11:19:00,65.7,55.6,29.99,North,351,1.0,1.0,70,0.00,CLR,,0.01,WeatherDisplay:10.37,2013-09-03 15:19:00,
2013-09-03 11:24:00,66.6,55.3,29.99,NW,321,5.0,5.0,67,0.00,CLR,,0.01,WeatherDisplay:10.37,2013-09-03 15:24:00,
2013-09-03 11:29:00,67.0,54.8,29.99,NNW,331,5.0,5.0,65,0.00,CLR,,0.01,WeatherDisplay:10.37,2013-09-03 15:29:00,
2013-09-03 11:34:00,67.6,56.2,29.99,NW,307,7.0,7.0,67,0.00,CLR,,0.01,WeatherDisplay:10.37,2013-09-03 15:34:00,
2013-09-03 11:39:00,67.7,55.9,29.99,NNW,338,0.0,0.0,66,0.00,CLR,,0.01,WeatherDisplay:10.37,2013-09-03 15:39:00,
2013-09-03 11:44:00,66.8,55.1,29.99,North,355,4.0,4.0,66,0.00,CLR,,0.01,WeatherDisplay:10.37,2013-09-03 15:44:00,
2013-09-03 11:49:00,67.2,55.5,29.99,NE,55,9.0,9.0,66,0.00,CLR,,0.01,WeatherDisplay:10.37,2013-09-03 15:49:00,
2013-09-03 11:54:00,67.5,53.6,29.99,NNW,327,4.0,4.0,61,0.00,CLR,,0.01,WeatherDisplay:10.37,2013-09-03 15:54:00,
2013-09-03 11:59:00,69.3,57.0,29.99,WSW,256,12.0,12.0,65,0.00,CLR,,0.01,WeatherDisplay:10.37,2013-09-03 15:59:00,
2013-09-03 12:04:00,68.4,55.3,29.99,North,9,8.1,8.1,63,0.00,CLR,,0.01,WeatherDisplay:10.37,2013-09-03 16:04:00,
2013-09-03 12:09:00,66.8,54.2,29.99,NNW,330,3.0,3.0,64,0.00,CLR,,0.01,WeatherDisplay:10.37,2013-09-03 16:09:00,
2013-09-03 12:14:00,67.0,54.4,29.99,NNE,14,6.0,6.0,64,0.00,CLR,,0.01,WeatherDisplay:10.37,2013-09-03 16:14:00,
2013-09-03 12:19:00,68.1,54.6,29.99,WNW,289,7.0,7.0,62,0.00,CLR,,0.01,WeatherDisplay:10.37,2013-09-03 16:19:00,
2013-09-03 12:24:00,69.0,54.5,29.99,West,273,7.0,7.0,60,0.00,CLR,,0.01,WeatherDisplay:10.37,2013-09-03 16:24:00,
2013-09-03 12:29:00,70.4,55.8,29.99,WNW,294,7.0,7.0,60,0.00,CLR,,0.01,WeatherDisplay:10.37,2013-09-03 16:29:00,
2013-09-03 12:34:00,70.4,55.4,29.99,West,265,5.0,5.0,59,0.00,CLR,,0.01,WeatherDisplay:10.37,2013-09-03 16:34:00,
2013-09-03 12:39:00,69.8,54.4,29.99,North,9,8.0,8.0,58,0.00,CLR,,0.01,WeatherDisplay:10.37,2013-09-03 16:39:00,
2013-09-03 12:44:00,68.5,54.1,29.99,NW,315,5.0,5.0,60,0.00,CLR,,0.01,WeatherDisplay:10.37,2013-09-03 16:44:00,
2013-09-03 12:49:00,68.0,53.6,29.99,NW,320,3.5,3.5,60,0.00,CLR,,0.01,WeatherDisplay:10.37,2013-09-03 16:49:00,
2013-09-03 12:54:00,68.8,55.2,29.99,West,279,8.1,8.1,62,0.00,CLR,,0.01,WeatherDisplay:10.37,2013-09-03 16:54:00,
2013-09-03 12:59:00,69.4,54.4,29.98,West,273,4.0,4.0,59,0.00,CLR,,0.01,WeatherDisplay:10.37,2013-09-03 16:59:00,
2013-09-03 13:04:00,68.8,54.3,29.99,SW,229,5.0,5.0,60,0.00,CLR,,0.01,WeatherDisplay:10.37,2013-09-03 17:04:00,
2013-09-03 13:09:00,67.8,54.3,29.99,North,355,1.0,1.0,62,0.00,CLR,,0.01,WeatherDisplay:10.37,2013-09-03 17:09:00,
2013-09-03 13:14:00,67.9,54.8,29.99,WNW,283,5.8,5.8,63,0.00,CLR,,0.01,WeatherDisplay:10.37,2013-09-03 17:14:00,
2013-09-03 13:19:00,69.8,56.2,29.99,NNW,336,7.0,7.0,62,0.00,CLR,,0.01,WeatherDisplay:10.37,2013-09-03 17:19:00,
2013-09-03 13:24:00,69.5,54.1,29.99,West,270,5.0,5.0,58,0.00,CLR,,0.01,WeatherDisplay:10.37,2013-09-03 17:24:00,
2013-09-03 13:29:00,68.5,54.1,29.99,West,259,2.3,2.3,60,0.00,CLR,,0.01,WeatherDisplay:10.37,2013-09-03 17:29:00,
2013-09-03 13:34:00,68.1,54.1,29.99,WNW,283,2.3,2.3,61,0.00,CLR,,0.01,WeatherDisplay:10.37,2013-09-03 17:34:00,
2013-09-03 13:39:00,69.8,54.8,29.99,NNW,330,3.5,3.5,59,0.00,CLR,,0.01,WeatherDisplay:10.37,2013-09-03 17:39:00,
2013-09-03 13:44:00,69.0,54.1,29.99,NNE,33,8.1,8.1,59,0.00,CLR,,0.01,WeatherDisplay:10.37,2013-09-03 17:44:00,
2013-09-03 13:49:00,68.1,53.7,29.99,NNW,329,1.2,1.2,60,0.00,CLR,,0.01,WeatherDisplay:10.37,2013-09-03 17:49:00,
2013-09-03 13:54:00,67.6,53.7,29.99,NNW,330,1.2,1.2,61,0.00,CLR,,0.01,WeatherDisplay:10.37,2013-09-03 17:54:00,
2013-09-03 13:59:00,67.7,52.9,29.98,NW,319,1.2,0.0,59,0.00,CLR,,0.01,WeatherDisplay:10.37,2013-09-03 17:59:00,
2013-09-03 14:04:00,68.0,54.0,29.98,WNW,283,1.0,1.0,61,0.00,CLR,,0.01,WeatherDisplay:10.37,2013-09-03 18:04:00,
2013-09-03 14:09:00,68.4,53.0,29.98,West,277,1.0,1.0,58,0.00,CLR,,0.01,WeatherDisplay:10.37,2013-09-03 18:09:00,
2013-09-03 14:14:00,68.7,53.3,29.98,NW,310,2.0,2.0,58,0.00,CLR,,0.01,WeatherDisplay:10.37,2013-09-03 18:14:00,
2013-09-03 14:19:00,69.8,54.4,29.98,North,360,5.0,5.0,58,0.00,CLR,,0.01,WeatherDisplay:10.37,2013-09-03 18:19:00,
2013-09-03 14:24:00,70.5,55.0,29.98,NNW,329,4.6,4.6,58,0.00,CLR,,0.01,WeatherDisplay:10.37,2013-09-03 18:24:00,
2013-09-03 14:29:00,70.3,54.8,29.98,West,276,12.0,12.0,58,0.00,CLR,,0.01,WeatherDisplay:10.37,2013-09-03 18:29:00,
2013-09-03 14:34:00,72.4,55.3,29.98,SW,234,13.0,13.0,55,0.00,CLR,,0.01,WeatherDisplay:10.37,2013-09-03 18:34:00,
2013-09-03 14:39:00,71.7,54.7,29.98,NW,316,3.5,3.5,55,0.00,CLR,,0.01,WeatherDisplay:10.37,2013-09-03 18:39:00,
2013-09-03 14:44:00,70.1,54.6,29.98,NW,319,0.0,0.0,58,0.00,CLR,,0.01,WeatherDisplay:10.37,2013-09-03 18:44:00,
2013-09-03 14:49:00,69.2,53.8,29.98,NW,318,1.0,0.0,58,0.00,CLR,,0.01,WeatherDisplay:10.37,2013-09-03 18:49:00,
2013-09-03 14:54:00,68.9,54.0,29.99,NW,317,0.0,0.0,59,0.00,CLR,,0.01,WeatherDisplay:10.37,2013-09-03 18:54:00,
2013-09-03 14:59:00,69.1,55.5,29.99,NW,317,1.2,1.2,62,0.00,CLR,,0.01,WeatherDisplay:10.37,2013-09-03 18:59:00,
2013-09-03 15:04:00,69.3,54.8,29.98,NNW,334,3.0,3.0,60,0.00,CLR,,0.01,WeatherDisplay:10.37,2013-09-03 19:04:00,
2013-09-03 15:09:00,70.5,55.9,29.98,West,281,3.5,3.5,60,0.00,CLR,,0.01,WeatherDisplay:10.37,2013-09-03 19:09:00,
2013-09-03 15:14:00,70.8,55.3,29.98,WSW,242,10.0,10.0,58,0.00,CLR,,0.01,WeatherDisplay:10.37,2013-09-03 19:14:00,
2013-09-03 15:19:00,70.6,54.1,29.98,NNW,347,3.0,3.0,56,0.00,CLR,,0.01,WeatherDisplay:10.37,2013-09-03 19:19:00,
2013-09-03 15:24:00,69.4,54.0,29.98,NW,304,1.0,0.0,58,0.00,CLR,,0.01,WeatherDisplay:10.37,2013-09-03 19:24:00,
2013-09-03 15:29:00,68.8,54.8,29.98,NNE,21,6.0,6.0,61,0.00,CLR,,0.01,WeatherDisplay:10.37,2013-09-03 19:29:00,
2013-09-03 15:34:00,67.9,54.4,29.98,NNE,13,3.5,3.5,62,0.00,CLR,,0.01,WeatherDisplay:10.37,2013-09-03 19:34:00,
2013-09-03 15:39:00,67.7,55.1,29.98,North,355,2.3,0.0,64,0.00,CLR,,0.01,WeatherDisplay:10.37,2013-09-03 19:39:00,
2013-09-03 15:44:00,67.9,55.3,29.98,NNE,17,6.0,6.0,64,0.00,CLR,,0.01,WeatherDisplay:10.37,2013-09-03 19:44:00,
2013-09-03 15:49:00,68.1,55.0,29.98,NNE,30,4.0,4.0,63,0.00,CLR,,0.01,WeatherDisplay:10.37,2013-09-03 19:49:00,
2013-09-03 15:54:00,68.5,55.4,29.98,NNE,19,3.5,0.0,63,0.00,CLR,,0.01,WeatherDisplay:10.37,2013-09-03 19:54:00,
2013-09-03 15:59:00,68.5,55.0,29.98,North,360,2.3,0.0,62,0.00,CLR,,0.01,WeatherDisplay:10.37,2013-09-03 19:59:00,
2013-09-03 16:04:00,68.2,55.1,29.99,NNE,24,3.5,3.5,63,0.00,CLR,,0.01,WeatherDisplay:10.37,2013-09-03 20:04:00,
2013-09-03 16:09:00,67.9,55.3,29.99,NNE,19,3.5,3.5,64,0.00,CLR,,0.01,WeatherDisplay:10.37,2013-09-03 20:09:00,
2013-09-03 16:14:00,67.8,55.6,29.99,NNE,19,4.0,4.0,65,0.00,CLR,,0.01,WeatherDisplay:10.37,2013-09-03 20:14:00,
2013-09-03 16:19:00,67.5,54.9,29.99,NNW,338,4.0,4.0,64,0.00,CLR,,0.01,WeatherDisplay:10.37,2013-09-03 20:19:00,
2013-09-03 16:24:00,67.4,54.4,29.99,NNW,340,2.0,2.0,63,0.00,CLR,,0.01,WeatherDisplay:10.37,2013-09-03 20:24:00,
2013-09-03 16:29:00,67.6,55.0,29.99,North,5,8.1,8.1,64,0.00,CLR,,0.01,WeatherDisplay:10.37,2013-09-03 20:29:00,
2013-09-03 16:34:00,67.8,55.6,29.99,NNE,26,7.0,7.0,65,0.00,CLR,,0.01,WeatherDisplay:10.37,2013-09-03 20:34:00,
2013-09-03 16:39:00,67.9,54.8,29.99,North,360,7.0,7.0,63,0.00,CLR,,0.01,WeatherDisplay:10.37,2013-09-03 20:39:00,
2013-09-03 16:44:00,67.5,54.9,29.99,NNE,24,4.0,4.0,64,0.00,CLR,,0.01,WeatherDisplay:10.37,2013-09-03 20:44:00,
2013-09-03 16:49:00,67.6,55.4,29.99,NNE,24,3.5,3.5,65,0.00,CLR,,0.01,WeatherDisplay:10.37,2013-09-03 20:49:00,
2013-09-03 16:54:00,67.6,55.8,29.99,North,355,2.3,2.3,66,0.00,CLR,,0.01,WeatherDisplay:10.37,2013-09-03 20:54:00,
2013-09-03 16:59:00,67.5,54.9,29.99,WSW,241,3.5,0.0,64,0.00,CLR,,0.01,WeatherDisplay:10.37,2013-09-03 20:59:00,
2013-09-03 17:04:00,67.5,54.9,29.99,North,355,3.0,3.0,64,0.00,CLR,,0.01,WeatherDisplay:10.37,2013-09-03 21:04:00,
2013-09-03 17:09:00,68.1,55.5,30.00,NNW,334,2.3,2.3,64,0.00,CLR,,0.01,WeatherDisplay:10.37,2013-09-03 21:09:00,
2013-09-03 17:14:00,67.8,54.7,30.00,NNW,329,1.2,0.0,63,0.00,CLR,,0.01,WeatherDisplay:10.37,2013-09-03 21:14:00,
2013-09-03 17:19:00,67.9,54.8,30.00,NW,319,3.5,3.5,63,0.00,CLR,,0.01,WeatherDisplay:10.37,2013-09-03 21:19:00,
2013-09-03 17:24:00,67.6,54.6,30.00,NNW,344,3.5,3.5,63,0.00,CLR,,0.01,WeatherDisplay:10.37,2013-09-03 21:24:00,
2013-09-03 17:29:00,67.4,54.4,30.00,NNW,342,1.2,0.0,63,0.00,CLR,,0.01,WeatherDisplay:10.37,2013-09-03 21:29:00,
2013-09-03 17:34:00,67.6,55.4,30.00,WSW,238,3.5,3.5,65,0.00,CLR,,0.01,WeatherDisplay:10.37,2013-09-03 21:34:00,
2013-09-03 17:39:00,67.2,54.6,30.00,North,355,6.9,6.9,64,0.00,CLR,,0.01,WeatherDisplay:10.37,2013-09-03 21:39:00,
2013-09-03 17:44:00,67.0,54.4,30.01,NNW,342,3.5,3.5,64,0.00,CLR,,0.01,WeatherDisplay:10.37,2013-09-03 21:44:00,
2013-09-03 17:49:00,66.7,54.6,30.01,North,5,9.2,9.2,65,0.00,CLR,,0.01,WeatherDisplay:10.37,2013-09-03 21:49:00,
2013-09-03 17:54:00,66.8,54.7,30.01,North,5,1.2,0.0,65,0.00,CLR,,0.01,WeatherDisplay:10.37,2013-09-03 21:54:00,
2013-09-03 17:59:00,66.7,54.6,30.01,North,350,4.6,4.6,65,0.00,CLR,,0.01,WeatherDisplay:10.37,2013-09-03 21:59:00,
2013-09-03 18:04:00,66.7,55.0,30.01,NNE,24,6.0,6.0,66,0.00,CLR,,0.01,WeatherDisplay:10.37,2013-09-03 22:04:00,
2013-09-03 18:09:00,66.4,54.7,30.01,North,360,4.0,4.0,66,0.00,CLR,,0.01,WeatherDisplay:10.37,2013-09-03 22:09:00,
2013-09-03 18:14:00,66.2,54.5,30.01,NNE,20,8.1,8.1,66,0.00,CLR,,0.01,WeatherDisplay:10.37,2013-09-03 22:14:00,
2013-09-03 18:19:00,65.9,54.6,30.01,North,360,6.0,6.0,67,0.00,CLR,,0.01,WeatherDisplay:10.37,2013-09-03 22:19:00,
2013-09-03 18:24:00,65.7,54.4,30.01,North,9,6.0,6.0,67,0.00,CLR,,0.01,WeatherDisplay:10.37,2013-09-03 22:24:00,
2013-09-03 18:29:00,65.6,54.8,30.01,NNE,17,6.0,6.0,68,0.00,CLR,,0.01,WeatherDisplay:10.37,2013-09-03 22:29:00,
2013-09-03 18:34:00,65.7,54.4,30.01,North,5,5.0,5.0,67,0.00,CLR,,0.01,WeatherDisplay:10.37,2013-09-03 22:34:00,
2013-09-03 18:39:00,65.8,54.5,30.01,NNE,23,5.0,5.0,67,0.00,CLR,,0.01,WeatherDisplay:10.37,2013-09-03 22:39:00,
2013-09-03 18:44:00,65.8,54.5,30.01,North,360,3.5,3.5,67,0.00,CLR,,0.01,WeatherDisplay:10.37,2013-09-03 22:44:00,
2013-09-03 18:49:00,65.6,54.3,30.02,North,11,5.0,5.0,67,0.00,CLR,,0.01,WeatherDisplay:10.37,2013-09-03 22:49:00,
2013-09-03 18:54:00,65.0,53.8,30.02,NNE,19,4.0,4.0,67,0.00,CLR,,0.01,WeatherDisplay:10.37,2013-09-03 22:54:00,
2013-09-03 18:59:00,64.5,53.7,30.02,NNE,17,4.6,4.6,68,0.00,CLR,,0.01,WeatherDisplay:10.37,2013-09-03 22:59:00,
2013-09-03 19:04:00,64.2,53.4,30.02,NNE,13,3.5,0.0,68,0.00,CLR,,0.01,WeatherDisplay:10.37,2013-09-03 23:04:00,
2013-09-03 19:09:00,64.0,53.6,30.02,NNE,13,1.2,1.2,69,0.00,CLR,,0.01,WeatherDisplay:10.37,2013-09-03 23:09:00,
2013-09-03 19:14:00,63.7,53.7,30.02,NNE,13,1.2,0.0,70,0.00,CLR,,0.01,WeatherDisplay:10.37,2013-09-03 23:14:00,
2013-09-03 19:19:00,63.6,53.6,30.02,NNE,13,1.0,0.0,70,0.00,CLR,,0.01,WeatherDisplay:10.37,2013-09-03 23:19:00,
2013-09-03 19:24:00,63.4,53.4,30.03,North,5,0.0,0.0,70,0.00,CLR,,0.01,WeatherDisplay:10.37,2013-09-03 23:24:00,
2013-09-03 19:29:00,63.2,53.3,30.03,North,355,2.3,2.3,70,0.00,CLR,,0.01,WeatherDisplay:10.37,2013-09-03 23:29:00,
2013-09-03 19:34:00,63.1,53.2,30.03,NNE,25,1.2,1.2,70,0.00,CLR,,0.01,WeatherDisplay:10.37,2013-09-03 23:34:00,
2013-09-03 19:39:00,62.9,53.0,30.03,North,11,1.2,0.0,70,0.00,CLR,,0.01,WeatherDisplay:10.37,2013-09-03 23:39:00,
2013-09-03 19:44:00,62.8,52.9,30.03,North,10,2.0,2.0,70,0.00,CLR,,0.01,WeatherDisplay:10.37,2013-09-03 23:44:00,
2013-09-03 19:49:00,62.7,53.2,30.04,North,10,0.0,0.0,71,0.00,CLR,,0.01,WeatherDisplay:10.37,2013-09-03 23:49:00,
2013-09-03 19:54:00,62.6,53.1,30.04,North,10,1.2,1.2,71,0.00,CLR,,0.01,WeatherDisplay:10.37,2013-09-03 23:54:00,
2013-09-03 19:59:00,62.6,53.4,30.04,North,10,0.0,0.0,72,0.00,CLR,,0.01,WeatherDisplay:10.37,2013-09-03 23:59:00,
2013-09-03 20:04:00,62.5,53.3,30.04,East,86,0.0,0.0,72,0.00,CLR,,0.01,WeatherDisplay:10.37,2013-09-04 00:04:00,
2013-09-03 20:09:00,62.3,53.2,30.04,NNE,30,3.5,3.5,72,0.00,CLR,,0.01,WeatherDisplay:10.37,2013-09-04 00:09:00,
2013-09-03 20:14:00,62.2,53.1,30.05,NNE,28,2.0,2.0,72,0.00,CLR,,0.01,WeatherDisplay:10.37,2013-09-04 00:14:00,
2013-09-03 20:19:00,62.2,53.1,30.05,NNE,13,3.5,3.5,72,0.00,CLR,,0.01,WeatherDisplay:10.37,2013-09-04 00:19:00,
2013-09-03 20:24:00,62.0,53.2,30.05,NNE,16,3.5,3.5,73,0.00,CLR,,0.01,WeatherDisplay:10.37,2013-09-04 00:24:00,
2013-09-03 20:29:00,61.7,53.0,30.05,NNE,15,1.2,0.0,73,0.00,CLR,,0.01,WeatherDisplay:10.37,2013-09-04 00:29:00,
2013-09-03 20:34:00,61.5,53.1,30.06,NNE,15,1.2,0.0,74,0.00,CLR,,0.01,WeatherDisplay:10.37,2013-09-04 00:34:00,
2013-09-03 20:39:00,61.4,53.0,30.06,NNE,16,0.0,0.0,74,0.00,CLR,,0.01,WeatherDisplay:10.37,2013-09-04 00:39:00,
2013-09-03 20:44:00,61.3,52.9,30.06,NNE,22,1.2,1.2,74,0.00,CLR,,0.01,WeatherDisplay:10.37,2013-09-04 00:44:00,
2013-09-03 20:49:00,61.2,53.2,30.06,NNE,21,2.0,2.0,75,0.00,CLR,,0.01,WeatherDisplay:10.37,2013-09-04 00:49:00,
2013-09-03 20:54:00,61.1,53.1,30.06,NNE,19,4.0,4.0,75,0.00,CLR,,0.01,WeatherDisplay:10.37,2013-09-04 00:54:00,
2013-09-03 20:59:00,61.1,53.1,30.06,NNE,17,3.0,3.0,75,0.00,CLR,,0.01,WeatherDisplay:10.37,2013-09-04 00:59:00,
2013-09-03 21:04:00,60.9,52.9,30.06,NNE,12,3.5,3.5,75,0.00,CLR,,0.01,WeatherDisplay:10.37,2013-09-04 01:04:00,
2013-09-03 21:09:00,60.9,52.9,30.07,NNE,17,2.0,2.0,75,0.00,CLR,,0.01,WeatherDisplay:10.37,2013-09-04 01:09:00,
2013-09-03 21:14:00,60.9,52.9,30.07,NNE,17,2.0,2.0,75,0.00,CLR,,0.01,WeatherDisplay:10.37,2013-09-04 01:14:00,
2013-09-03 21:19:00,60.9,52.9,30.07,NNE,17,2.3,0.0,75,0.00,CLR,,0.01,WeatherDisplay:10.37,2013-09-04 01:19:00,
2013-09-03 21:24:00,60.9,52.9,30.07,NNE,17,1.2,0.0,75,0.00,CLR,,0.01,WeatherDisplay:10.37,2013-09-04 01:24:00,
2013-09-03 21:29:00,60.8,52.8,30.08,NNE,17,1.2,1.2,75,0.00,CLR,,0.01,WeatherDisplay:10.37,2013-09-04 01:29:00,
2013-09-03 21:34:00,60.8,52.8,30.08,NNE,17,0.0,0.0,75,0.00,CLR,,0.01,WeatherDisplay:10.37,2013-09-04 01:34:00,
2013-09-03 21:39:00,60.8,52.8,30.08,NNE,17,0.0,0.0,75,0.00,CLR,,0.01,WeatherDisplay:10.37,2013-09-04 01:39:00,
2013-09-03 21:44:00,60.8,52.8,30.08,NNE,17,0.0,0.0,75,0.00,CLR,,0.01,WeatherDisplay:10.37,2013-09-04 01:44:00,
2013-09-03 21:49:00,60.8,52.8,30.08,NNE,17,1.2,0.0,75,0.00,CLR,,0.01,WeatherDisplay:10.37,2013-09-04 01:49:00,
2013-09-03 21:54:00,60.8,52.8,30.08,NNE,17,0.0,0.0,75,0.00,CLR,,0.01,WeatherDisplay:10.37,2013-09-04 01:54:00,
2013-09-03 21:59:00,60.7,52.7,30.08,NNE,17,0.0,0.0,75,0.00,CLR,,0.01,WeatherDisplay:10.37,2013-09-04 01:59:00,
2013-09-03 22:04:00,60.7,52.7,30.08,NNE,17,0.0,0.0,75,0.00,CLR,,0.01,WeatherDisplay:10.37,2013-09-04 02:04:00,
2013-09-03 22:09:00,60.6,53.0,30.08,NNE,17,0.0,0.0,76,0.00,CLR,,0.01,WeatherDisplay:10.37,2013-09-04 02:09:00,
2013-09-03 22:14:00,60.5,52.9,30.08,NNE,17,0.0,0.0,76,0.00,CLR,,0.01,WeatherDisplay:10.37,2013-09-04 02:14:00,
2013-09-03 22:19:00,60.5,52.9,30.08,NNE,17,0.0,0.0,76,0.00,CLR,,0.01,WeatherDisplay:10.37,2013-09-04 02:19:00,
2013-09-03 22:24:00,60.4,52.8,30.08,NNE,17,0.0,0.0,76,0.00,CLR,,0.01,WeatherDisplay:10.37,2013-09-04 02:24:00,
2013-09-03 22:29:00,60.4,52.8,30.08,NNE,17,1.2,1.2,76,0.00,CLR,,0.01,WeatherDisplay:10.37,2013-09-04 02:29:00,
2013-09-03 22:34:00,60.4,52.8,30.08,NNE,17,1.2,0.0,76,0.00,CLR,,0.01,WeatherDisplay:10.37,2013-09-04 02:34:00,
2013-09-03 22:39:00,60.2,53.0,30.08,NNE,17,0.0,0.0,77,0.00,CLR,,0.01,WeatherDisplay:10.37,2013-09-04 02:39:00,
2013-09-03 22:44:00,60.1,52.9,30.09,NNE,17,0.0,0.0,77,0.00,CLR,,0.01,WeatherDisplay:10.37,2013-09-04 02:44:00,
2013-09-03 22:49:00,60.0,52.8,30.09,NNE,17,0.0,0.0,77,0.00,CLR,,0.01,WeatherDisplay:10.37,2013-09-04 02:49:00,
2013-09-03 22:54:00,59.9,52.7,30.09,NNE,17,0.0,0.0,77,0.00,CLR,,0.01,WeatherDisplay:10.37,2013-09-04 02:54:00,
2013-09-03 22:59:00,59.9,52.7,30.09,NNE,17,0.0,0.0,77,0.00,CLR,,0.01,WeatherDisplay:10.37,2013-09-04 02:59:00,
2013-09-03 23:04:00,59.9,52.7,30.09,NNE,17,0.0,0.0,77,0.00,CLR,,0.01,WeatherDisplay:10.37,2013-09-04 03:04:00,
2013-09-03 23:09:00,59.9,53.0,30.09,NNE,17,0.0,0.0,78,0.00,CLR,,0.01,WeatherDisplay:10.37,2013-09-04 03:09:00,
2013-09-03 23:14:00,59.8,52.6,30.09,NNE,17,0.0,0.0,77,0.00,CLR,,0.01,WeatherDisplay:10.37,2013-09-04 03:14:00,
2013-09-03 23:19:00,59.8,52.6,30.09,NNE,17,0.0,0.0,77,0.00,CLR,,0.01,WeatherDisplay:10.37,2013-09-04 03:19:00,
2013-09-03 23:24:00,59.6,52.4,30.09,NNE,17,0.0,0.0,77,0.00,CLR,,0.01,WeatherDisplay:10.37,2013-09-04 03:24:00,
2013-09-03 23:29:00,59.6,52.4,30.09,NNE,17,0.0,0.0,77,0.00,CLR,,0.01,WeatherDisplay:10.37,2013-09-04 03:29:00,
2013-09-03 23:34:00,59.4,52.2,30.09,NNE,17,0.0,0.0,77,0.00,CLR,,0.01,WeatherDisplay:10.37,2013-09-04 03:34:00,
2013-09-03 23:39:00,59.2,52.3,30.09,NNE,17,0.0,0.0,78,0.00,CLR,,0.01,WeatherDisplay:10.37,2013-09-04 03:39:00,
2013-09-03 23:44:00,59.0,52.1,30.09,NNE,17,0.0,0.0,78,0.00,CLR,,0.01,WeatherDisplay:10.37,2013-09-04 03:44:00,
2013-09-03 23:49:00,59.0,52.1,30.09,NNE,17,0.0,0.0,78,0.00,CLR,,0.01,WeatherDisplay:10.37,2013-09-04 03:49:00,
2013-09-03 23:54:00,59.0,52.1,30.09,NNE,17,0.0,0.0,78,0.00,CLR,,0.01,WeatherDisplay:10.37,2013-09-04 03:54:00,
2013-09-03 23:59:00,59.0,52.1,30.09,NNE,17,0.0,0.0,78,0.00,CLR,,0.01,WeatherDisplay:10.37,2013-09-04 03:59:00,